Meteo Giornale » Osservazioni meteo Italia » Lamezia Terme

ore: 22:50 - Osservazioni Meteo Lamezia Terme
Lat. 38° 54' N Lon. 16° 15' E Alt. 15 metri s.l.m.

nuvoloso Europe/Rome

20 °C

Nuvoloso

Temp. 24 Ore

13 °C

24 °C

Est

14.8 Km/h

Dew point 15 °C

Umidità 72 %

Visibilità  10 Km

Il sole sorge alle ore 06:45

Il sole tramonta alle ore 18:46

Data e Ora Cielo e Fenomeni T °C DP °C Um. % Pres. hPa Vis. km Vento km/h
Oggi h: 22:50 nuvoloso Nuvoloso 20 15 72 1019 10 E 14.8
Oggi h: 21:50 nuvoloso Nuvoloso 20 15 72 1019 10 E/NE 11.1
Oggi h: 20:50 nuvoloso Nuvoloso 20 15 72 1018 10 E/NE 13
Oggi h: 19:50 nuvoloso Nuvoloso 19 15 77 1018 10 E 9.3
Oggi h: 18:50 poco_nuvoloso Poco Nuvoloso 21 14 64 1018 10 N 1.8
Oggi h: 17:50 poco_nuvoloso Poco Nuvoloso 22 14 60 1018 10 O 7.4
Oggi h: 16:50 poco_nuvoloso Poco Nuvoloso 23 14 56 1017 10 O/SO 14.8
Oggi h: 15:50 poco_nuvoloso Poco Nuvoloso 24 14 53 1017 10 O 13
Oggi h: 14:50 poco_nuvoloso Poco Nuvoloso 24 14 53 1018 10 O 18.5
Oggi h: 13:50 poco_nuvoloso Poco Nuvoloso 24 15 57 1018 10 O 20.3
Oggi h: 12:50 nuvoloso Nuvoloso 23 15 60 1018 10 O 18.5
Oggi h: 11:50 nuvoloso Nuvoloso 23 15 60 1018 10 O/SO 14.8
Oggi h: 10:50 nuvoloso Nuvoloso 23 14 56 1018 10 O/SO 11.1
Oggi h: 09:50 nuvoloso Nuvoloso 22 16 68 1018 10 N 1.8
Oggi h: 08:50 nuvoloso Nuvoloso 18 15 82 1018 10 E 9.3
Oggi h: 07:50 nuvoloso Nuvoloso 14 12 87 1017 10 E 7.4
Oggi h: 06:50 nuvoloso Nuvoloso 13 12 93 1017 10 E 9.3
Oggi h: 05:50 nuvoloso Nuvoloso 13 12 93 1017 10 E 7.4
Oggi h: 04:50 nuvoloso Nuvoloso 13 12 93 1017 10 E 7.4
Oggi h: 03:50 nuvoloso Nuvoloso 13 12 93 1017 10 E 9.3
Oggi h: 01:50 nuvoloso Nuvoloso 13 11 87 1017 10 E 7.4
Oggi h: 00:50 nuvoloso Nuvoloso 14 12 87 1017 10 N 5.5
Ieri h: 23:50 nuvoloso Nuvoloso 15 13 87 1017 10 N 3.7